Location: Newark
(40.7066°N, 111.8219°W)
Time: 07:40:13
(UTC+00:00)

Transit 2A Rocket - Pass Details

Date: 27 November 2019
Orbit: 594 x 909 km, 66.7° (Epoch: 07 December)

Event Time Altitude Azimuth Distance (km) Brightness Sun altitude
Rises 03:37:29 0° 228° (SW) 3,050 8.6 -40.3°
Enters shadow 03:39:07 - 232° (SW) 2,424 8.0 -40.6°
Reaches altitude 10° 03:40:00 10° 236° (SW) 2,089 - -40.8°
Maximum altitude 03:44:24 39° 305° (NW) 961 - -41.6°
Drops below altitude 10° 03:48:33 10° 15° (NNE) 1,973 - -42.4°
Sets 03:50:52 0° 23° (NNE) 2,860 - -42.8°
